Location: Peebles
(55.6412°N, 3.1714°W)
Time: 15:59:58
(UTC+01:00)

CHARLIE (NANOAVIONICS) - Visible Passes

Search period start: 19 April 2024 00:00
Search period end: 29 April 2024 00:00
Orbit: 409 x 415 km, 97.3° (Epoch: 19 April)

Date Brightness Start Highest point End Pass type
(mag) Time Alt. Az. Time Alt. Az. Time Alt. Az.
19 Apr ? 22:09:00 20° SSE 22:11:04 88° E 22:14:16 10° NNW visible
20 Apr ? 21:21:43 10° SE 21:24:26 26° ENE 21:27:10 10° N visible
20 Apr ? 22:54:32 16° SW 22:56:24 27° W 22:59:11 10° NW visible
21 Apr ? 22:07:01 18° SSE 22:09:16 84° ENE 22:12:27 10° NNW visible
22 Apr ? 21:19:32 10° ESE 21:22:12 25° ENE 21:24:53 10° N visible
22 Apr ? 22:52:05 15° SSW 22:54:07 29° W 22:56:56 10° NNW visible
23 Apr ? 22:04:07 16° SSE 22:06:33 77° ENE 22:09:45 10° NNW visible
23 Apr ? 23:38:17 10° W 23:38:59 10° W 23:39:40 10° WNW visible
24 Apr ? 21:16:30 10° ESE 21:19:06 23° ENE 21:21:42 10° N visible
24 Apr ? 22:48:44 15° SSW 22:50:55 31° W 22:53:49 10° NNW visible
25 Apr ? 22:00:20 14° SSE 22:02:58 69° ENE 22:06:08 10° N visible
25 Apr ? 23:34:08 10° WSW 23:35:18 12° W 23:36:29 10° WNW visible
26 Apr ? 22:44:29 14° SSW 22:46:51 35° W 22:49:49 10° NNW visible
27 Apr ? 21:55:40 12° SSE 21:58:30 60° ENE 22:01:39 10° N visible
27 Apr ? 23:29:12 10° WSW 23:30:44 13° W 23:32:18 10° WNW visible
28 Apr ? 22:39:21 13° SSW 22:41:53 40° W 22:44:55 10° NNW visible
